Time,TemperatureF,DewpointF,PressureIn,WindDirection,WindDirectionDegrees,WindSpeedMPH,WindSpeedGustMPH,Humidity,HourlyPrecipIn,Conditions,Clouds,dailyrainin,SoftwareType,DateUTC
2013-03-02 00:00:00,50.4,22.9,27.61,ESE,113,1.6,1.8,34,0.00,,,0.00,WUHU216HW,2013-03-02 07:00:00,
2013-03-02 00:05:00,50.2,22.7,27.61,ENE,68,1.8,2.2,34,0.00,,,0.00,WUHU216HW,2013-03-02 07:05:00,
2013-03-02 00:10:00,50.0,23.2,27.61,East,90,1.1,2.2,35,0.00,,,0.00,WUHU216HW,2013-03-02 07:10:00,
2013-03-02 00:15:00,50.0,22.5,27.61,SE,135,1.1,2.2,34,0.00,,,0.00,WUHU216HW,2013-03-02 07:15:00,
2013-03-02 00:20:00,50.0,22.5,27.61,ESE,113,0.4,2.2,34,0.00,,,0.00,WUHU216HW,2013-03-02 07:20:00,
2013-03-02 00:25:00,49.7,22.2,27.61,NNE,23,2.5,2.5,34,0.00,,,0.00,WUHU216HW,2013-03-02 07:25:00,
2013-03-02 00:30:00,49.5,22.8,27.61,ESE,113,0.9,2.5,35,0.00,,,0.00,WUHU216HW,2013-03-02 07:30:00,
2013-03-02 00:35:00,49.3,22.6,27.61,ESE,113,0.4,2.5,35,0.00,,,0.00,WUHU216HW,2013-03-02 07:35:00,
2013-03-02 00:40:00,49.3,22.0,27.61,East,90,0.4,2.0,34,0.00,,,0.00,WUHU216HW,2013-03-02 07:40:00,
2013-03-02 00:45:00,49.3,22.6,27.61,SE,135,1.3,2.5,35,0.00,,,0.00,WUHU216HW,2013-03-02 07:45:00,
2013-03-02 00:50:00,49.3,22.6,27.61,East,90,1.8,3.1,35,0.00,,,0.00,WUHU216HW,2013-03-02 07:50:00,
2013-03-02 00:55:00,49.3,22.6,27.61,ESE,113,1.8,3.1,35,0.00,,,0.00,WUHU216HW,2013-03-02 07:55:00,
2013-03-02 01:00:00,49.1,23.1,27.61,East,90,1.6,2.9,36,0.00,,,0.00,WUHU216HW,2013-03-02 08:00:00,
2013-03-02 01:05:00,48.8,22.9,27.61,East,90,1.8,2.9,36,0.00,,,0.00,WUHU216HW,2013-03-02 08:05:00,
2013-03-02 01:10:00,48.6,22.7,27.61,ESE,113,0.4,2.5,36,0.00,,,0.00,WUHU216HW,2013-03-02 08:10:00,
2013-03-02 01:15:00,48.4,22.5,27.61,East,90,0.9,2.5,36,0.00,,,0.00,WUHU216HW,2013-03-02 08:15:00,
2013-03-02 01:20:00,48.4,22.5,27.61,ENE,68,1.1,1.3,36,0.00,,,0.00,WUHU216HW,2013-03-02 08:20:00,
2013-03-02 01:25:00,48.2,22.3,27.61,ESE,113,1.3,1.6,36,0.00,,,0.00,WUHU216HW,2013-03-02 08:25:00,
2013-03-02 01:30:00,48.2,22.3,27.61,ENE,68,1.8,1.8,36,0.00,,,0.00,WUHU216HW,2013-03-02 08:30:00,
2013-03-02 01:35:00,48.2,22.3,27.61,ENE,68,0.4,1.8,36,0.00,,,0.00,WUHU216HW,2013-03-02 08:35:00,
2013-03-02 01:40:00,48.1,20.9,27.61,East,90,0.9,2.0,34,0.00,,,0.00,WUHU216HW,2013-03-02 08:40:00,
2013-03-02 01:45:00,48.1,20.9,27.61,ESE,113,1.1,2.7,34,0.00,,,0.00,WUHU216HW,2013-03-02 08:45:00,
2013-03-02 01:50:00,48.2,21.1,27.61,SE,135,0.9,2.7,34,0.00,,,0.00,WUHU216HW,2013-03-02 08:50:00,
2013-03-02 01:55:00,48.2,21.1,27.61,ENE,68,0.7,2.5,34,0.00,,,0.00,WUHU216HW,2013-03-02 08:55:00,
2013-03-02 02:00:00,48.2,21.1,27.61,East,90,1.1,2.2,34,0.00,,,0.00,WUHU216HW,2013-03-02 09:00:00,
2013-03-02 02:05:00,48.4,21.2,27.61,East,90,2.5,2.9,34,0.00,,,0.00,WUHU216HW,2013-03-02 09:05:00,
2013-03-02 02:10:00,48.4,21.2,27.61,ESE,113,1.1,2.9,34,0.00,,,0.00,WUHU216HW,2013-03-02 09:10:00,
2013-03-02 02:15:00,48.4,21.2,27.61,NNE,23,1.8,2.7,34,0.00,,,0.00,WUHU216HW,2013-03-02 09:15:00,
2013-03-02 02:20:00,48.4,21.2,27.61,ENE,68,2.2,2.7,34,0.00,,,0.00,WUHU216HW,2013-03-02 09:20:00,
2013-03-02 02:25:00,48.6,21.3,27.61,ESE,113,1.1,2.7,34,0.00,,,0.00,WUHU216HW,2013-03-02 09:25:00,
2013-03-02 02:30:00,48.6,21.3,27.61,SE,135,1.1,2.7,34,0.00,,,0.00,WUHU216HW,2013-03-02 09:30:00,
2013-03-02 02:35:00,48.4,21.2,27.61,ESE,113,0.4,2.2,34,0.00,,,0.00,WUHU216HW,2013-03-02 09:35:00,
2013-03-02 02:40:00,48.2,21.1,27.61,ESE,113,0.7,2.0,34,0.00,,,0.00,WUHU216HW,2013-03-02 09:40:00,
2013-03-02 02:45:00,48.1,20.9,27.61,East,90,0.4,1.8,34,0.00,,,0.00,WUHU216HW,2013-03-02 09:45:00,
2013-03-02 02:50:00,47.9,20.7,27.61,East,90,1.8,1.8,34,0.00,,,0.00,WUHU216HW,2013-03-02 09:50:00,
2013-03-02 02:55:00,47.9,20.7,27.61,ENE,68,0.4,2.0,34,0.00,,,0.00,WUHU216HW,2013-03-02 09:55:00,
2013-03-02 03:00:00,47.7,21.3,27.61,ESE,113,0.2,2.2,35,0.00,,,0.00,WUHU216HW,2013-03-02 10:00:00,
2013-03-02 03:05:00,47.5,21.7,27.61,East,90,0.9,2.2,36,0.00,,,0.00,WUHU216HW,2013-03-02 10:05:00,
2013-03-02 03:10:00,47.3,21.5,27.61,SE,135,0.4,2.7,36,0.00,,,0.00,WUHU216HW,2013-03-02 10:10:00,
2013-03-02 03:15:00,47.2,21.4,27.60,SE,135,1.1,2.7,36,0.00,,,0.00,WUHU216HW,2013-03-02 10:15:00,
2013-03-02 03:20:00,47.2,22.1,27.60,SE,135,1.8,2.5,37,0.00,,,0.00,WUHU216HW,2013-03-02 10:20:00,
2013-03-02 03:25:00,46.6,20.9,27.61,East,90,1.1,2.5,36,0.00,,,0.00,WUHU216HW,2013-03-02 10:25:00,
2013-03-02 03:30:00,46.3,21.2,27.60,East,90,2.9,4.0,37,0.00,,,0.00,WUHU216HW,2013-03-02 10:30:00,
2013-03-02 03:35:00,46.1,21.1,27.61,SE,135,1.6,4.0,37,0.00,,,0.00,WUHU216HW,2013-03-02 10:35:00,
2013-03-02 03:41:00,45.7,22.1,27.60,NNW,338,2.7,3.4,39,0.00,,,0.00,WUHU216HW,2013-03-02 10:41:00,
2013-03-02 03:46:00,45.2,21.6,27.60,ESE,113,1.8,4.3,39,0.00,,,0.00,WUHU216HW,2013-03-02 10:46:00,
2013-03-02 03:51:00,45.0,22.2,27.61,ESE,113,1.8,4.3,40,0.00,,,0.00,WUHU216HW,2013-03-02 10:51:00,
2013-03-02 03:56:00,44.8,22.0,27.60,ESE,113,1.3,3.4,40,0.00,,,0.00,WUHU216HW,2013-03-02 10:56:00,
2013-03-02 04:01:00,45.0,22.2,27.60,SE,135,4.0,4.0,40,0.00,,,0.00,WUHU216HW,2013-03-02 11:01:00,
2013-03-02 04:06:00,45.4,21.8,27.60,ESE,113,1.8,4.7,39,0.00,,,0.00,WUHU216HW,2013-03-02 11:06:00,
2013-03-02 04:11:00,45.7,22.1,27.60,East,90,2.5,4.7,39,0.00,,,0.00,WUHU216HW,2013-03-02 11:11:00,
2013-03-02 04:16:00,45.9,21.6,27.60,SW,225,3.1,3.6,38,0.00,,,0.00,WUHU216HW,2013-03-02 11:16:00,
2013-03-02 04:21:00,46.1,21.8,27.60,SE,135,1.8,3.8,38,0.00,,,0.00,WUHU216HW,2013-03-02 11:21:00,
2013-03-02 04:26:00,46.1,21.8,27.61,ESE,113,3.1,3.8,38,0.00,,,0.00,WUHU216HW,2013-03-02 11:26:00,
2013-03-02 04:31:00,46.1,21.8,27.61,SSE,158,1.1,3.4,38,0.00,,,0.00,WUHU216HW,2013-03-02 11:31:00,
2013-03-02 04:36:00,46.1,21.8,27.61,SE,135,1.8,3.4,38,0.00,,,0.00,WUHU216HW,2013-03-02 11:36:00,
2013-03-02 04:41:00,46.1,21.8,27.61,ESE,113,3.1,3.4,38,0.00,,,0.00,WUHU216HW,2013-03-02 11:41:00,
2013-03-02 04:46:00,46.1,21.8,27.61,ESE,113,1.3,3.1,38,0.00,,,0.00,WUHU216HW,2013-03-02 11:46:00,
2013-03-02 04:51:00,46.1,21.8,27.61,SE,135,1.1,3.1,38,0.00,,,0.00,WUHU216HW,2013-03-02 11:51:00,
2013-03-02 04:56:00,46.1,21.8,27.60,SSE,158,2.0,4.0,38,0.00,,,0.00,WUHU216HW,2013-03-02 11:56:00,
2013-03-02 05:01:00,46.1,21.8,27.61,NE,45,1.6,4.0,38,0.00,,,0.00,WUHU216HW,2013-03-02 12:01:00,
2013-03-02 05:06:00,46.1,21.8,27.61,ESE,113,1.1,3.4,38,0.00,,,0.00,WUHU216HW,2013-03-02 12:06:00,
2013-03-02 05:11:00,46.1,21.8,27.61,East,90,0.9,2.9,38,0.00,,,0.00,WUHU216HW,2013-03-02 12:11:00,
2013-03-02 05:16:00,46.1,21.8,27.61,East,90,0.4,2.9,38,0.00,,,0.00,WUHU216HW,2013-03-02 12:16:00,
2013-03-02 05:21:00,46.1,21.8,27.61,ESE,113,0.4,1.8,38,0.00,,,0.00,WUHU216HW,2013-03-02 12:21:00,
2013-03-02 05:26:00,45.9,21.6,27.61,East,90,1.1,2.5,38,0.00,,,0.00,WUHU216HW,2013-03-02 12:26:00,
2013-03-02 05:31:00,45.7,21.4,27.61,SE,135,2.9,2.9,38,0.00,,,0.00,WUHU216HW,2013-03-02 12:31:00,
2013-03-02 05:36:00,45.7,21.4,27.61,ESE,113,1.3,3.1,38,0.00,,,0.00,WUHU216HW,2013-03-02 12:36:00,
2013-03-02 05:41:00,45.7,21.4,27.62,ENE,68,1.6,3.1,38,0.00,,,0.00,WUHU216HW,2013-03-02 12:41:00,
2013-03-02 05:46:00,45.9,21.6,27.62,ESE,113,2.9,2.9,38,0.00,,,0.00,WUHU216HW,2013-03-02 12:46:00,
2013-03-02 05:51:00,45.9,21.6,27.62,ESE,113,1.1,2.9,38,0.00,,,0.00,WUHU216HW,2013-03-02 12:51:00,
2013-03-02 05:56:00,45.7,21.4,27.62,SE,135,0.7,2.9,38,0.00,,,0.00,WUHU216HW,2013-03-02 12:56:00,
2013-03-02 06:01:00,45.7,22.1,27.62,SSE,158,1.6,2.5,39,0.00,,,0.00,WUHU216HW,2013-03-02 13:01:00,
2013-03-02 06:06:00,45.9,21.6,27.61,East,90,2.5,2.5,38,0.00,,,0.00,WUHU216HW,2013-03-02 13:06:00,
2013-03-02 06:11:00,45.9,22.2,27.61,SE,135,1.1,2.5,39,0.00,,,0.00,WUHU216HW,2013-03-02 13:11:00,
2013-03-02 06:16:00,46.3,22.6,27.62,ESE,113,1.1,2.9,39,0.00,,,0.00,WUHU216HW,2013-03-02 13:16:00,
2013-03-02 06:21:00,46.4,22.1,27.62,South,180,1.8,3.6,38,0.00,,,0.00,WUHU216HW,2013-03-02 13:21:00,
2013-03-02 06:26:00,46.6,22.2,27.62,East,90,0.4,3.6,38,0.00,,,0.00,WUHU216HW,2013-03-02 13:26:00,
2013-03-02 06:31:00,46.6,22.2,27.62,South,180,1.8,3.4,38,0.00,,,0.00,WUHU216HW,2013-03-02 13:31:00,
2013-03-02 06:36:00,46.8,21.7,27.62,SE,135,2.2,3.4,37,0.00,,,0.00,WUHU216HW,2013-03-02 13:36:00,
2013-03-02 06:41:00,47.2,22.7,27.62,SE,135,3.4,3.4,38,0.00,,,0.00,WUHU216HW,2013-03-02 13:41:00,
2013-03-02 06:46:00,47.2,22.1,27.63,SE,135,2.2,4.0,37,0.00,,,0.00,WUHU216HW,2013-03-02 13:46:00,
2013-03-02 06:51:00,47.0,21.9,27.62,ESE,113,1.6,4.0,37,0.00,,,0.00,WUHU216HW,2013-03-02 13:51:00,
2013-03-02 06:56:00,47.0,21.3,27.63,ESE,113,1.8,3.4,36,0.00,,,0.00,WUHU216HW,2013-03-02 13:56:00,
2013-03-02 07:01:00,46.8,21.1,27.63,ESE,113,0.0,2.0,36,0.00,,,0.00,WUHU216HW,2013-03-02 14:01:00,
2013-03-02 07:06:00,46.6,20.9,27.63,ESE,113,0.4,1.8,36,0.00,,,0.00,WUHU216HW,2013-03-02 14:06:00,
2013-03-02 07:11:00,46.6,21.6,27.64,ESE,113,0.0,1.1,37,0.00,,,0.00,WUHU216HW,2013-03-02 14:11:00,
2013-03-02 07:16:00,46.4,21.4,27.64,SE,135,0.4,1.1,37,0.00,,,0.00,WUHU216HW,2013-03-02 14:16:00,
2013-03-02 07:21:00,46.4,21.4,27.64,SE,135,1.1,1.8,37,0.00,,,0.00,WUHU216HW,2013-03-02 14:21:00,
2013-03-02 07:26:00,46.4,22.1,27.63,ESE,113,1.1,2.5,38,0.00,,,0.00,WUHU216HW,2013-03-02 14:26:00,
2013-03-02 07:31:00,46.4,22.1,27.64,SE,135,0.7,2.9,38,0.00,,,0.00,WUHU216HW,2013-03-02 14:31:00,
2013-03-02 07:36:00,46.8,22.4,27.64,ESE,113,1.6,2.9,38,0.00,,,0.00,WUHU216HW,2013-03-02 14:36:00,
2013-03-02 07:41:00,47.0,22.6,27.64,SE,135,1.3,3.4,38,0.00,,,0.00,WUHU216HW,2013-03-02 14:41:00,
2013-03-02 07:46:00,47.2,22.7,27.64,ESE,113,1.8,3.4,38,0.00,,,0.00,WUHU216HW,2013-03-02 14:46:00,
2013-03-02 07:51:00,47.7,23.2,27.64,SSW,203,0.4,3.1,38,0.00,,,0.00,WUHU216HW,2013-03-02 14:51:00,
2013-03-02 07:56:00,49.0,23.7,27.64,ESE,113,2.7,4.0,37,0.00,,,0.00,WUHU216HW,2013-03-02 14:56:00,
2013-03-02 08:01:00,50.2,24.0,27.64,ESE,113,3.1,4.7,36,0.00,,,0.00,WUHU216HW,2013-03-02 15:01:00,
2013-03-02 08:06:00,50.8,24.6,27.64,ESE,113,1.1,4.7,36,0.00,,,0.00,WUHU216HW,2013-03-02 15:06:00,
2013-03-02 08:11:00,50.9,24.8,27.64,SSE,158,1.8,3.8,36,0.00,,,0.00,WUHU216HW,2013-03-02 15:11:00,
2013-03-02 08:16:00,51.7,24.0,27.64,SE,135,2.7,4.5,34,0.00,,,0.00,WUHU216HW,2013-03-02 15:16:00,
2013-03-02 08:21:00,52.2,24.5,27.64,ENE,68,3.6,4.9,34,0.00,,,0.00,WUHU216HW,2013-03-02 15:21:00,
2013-03-02 08:26:00,52.7,24.3,27.64,ENE,68,2.5,4.9,33,0.00,,,0.00,WUHU216HW,2013-03-02 15:26:00,
2013-03-02 08:31:00,53.1,24.6,27.64,SE,135,2.2,4.9,33,0.00,,,0.00,WUHU216HW,2013-03-02 15:31:00,
2013-03-02 08:36:00,53.6,24.4,27.64,NE,45,2.5,5.1,32,0.00,,,0.00,WUHU216HW,2013-03-02 15:36:00,
2013-03-02 08:41:00,54.2,24.8,27.63,East,90,1.6,5.1,32,0.00,,,0.00,WUHU216HW,2013-03-02 15:41:00,
2013-03-02 08:46:00,54.5,25.1,27.63,SE,135,2.7,5.1,32,0.00,,,0.00,WUHU216HW,2013-03-02 15:46:00,
2013-03-02 08:51:00,55.1,25.6,27.63,ESE,113,2.5,5.1,32,0.00,,,0.00,WUHU216HW,2013-03-02 15:51:00,
2013-03-02 08:56:00,55.6,25.4,27.63,NE,45,4.0,5.4,31,0.00,,,0.00,WUHU216HW,2013-03-02 15:56:00,
2013-03-02 09:01:00,55.8,25.5,27.63,SE,135,2.5,5.4,31,0.00,,,0.00,WUHU216HW,2013-03-02 16:01:00,
2013-03-02 09:06:00,56.2,25.1,27.63,SE,135,2.5,4.0,30,0.00,,,0.00,WUHU216HW,2013-03-02 16:06:00,
2013-03-02 09:11:00,56.5,25.5,27.62,ESE,113,1.3,4.0,30,0.00,,,0.00,WUHU216HW,2013-03-02 16:11:00,
2013-03-02 09:16:00,56.7,25.7,27.62,SE,135,1.8,3.4,30,0.00,,,0.00,WUHU216HW,2013-03-02 16:16:00,
2013-03-02 09:21:00,57.2,26.8,27.62,ESE,113,2.5,2.7,31,0.00,,,0.00,WUHU216HW,2013-03-02 16:21:00,
2013-03-02 09:26:00,58.3,26.1,27.62,ESE,113,2.5,2.7,29,0.00,,,0.00,WUHU216HW,2013-03-02 16:26:00,
2013-03-02 09:31:00,59.4,27.0,27.62,WSW,248,1.1,2.7,29,0.00,,,0.00,WUHU216HW,2013-03-02 16:31:00,
2013-03-02 09:36:00,60.3,25.8,27.62,South,180,3.4,5.4,27,0.00,,,0.00,WUHU216HW,2013-03-02 16:36:00,
2013-03-02 09:41:00,61.6,25.9,27.62,ESE,113,3.4,5.8,26,0.00,,,0.00,WUHU216HW,2013-03-02 16:41:00,
2013-03-02 09:46:00,62.8,26.1,27.62,East,90,3.8,5.8,25,0.00,,,0.00,WUHU216HW,2013-03-02 16:46:00,
2013-03-02 09:51:00,63.7,26.8,27.61,ESE,113,3.4,5.8,25,0.00,,,0.00,WUHU216HW,2013-03-02 16:51:00,
2013-03-02 09:56:00,64.6,26.7,27.61,ENE,68,4.0,5.8,24,0.00,,,0.00,WUHU216HW,2013-03-02 16:56:00,
2013-03-02 10:01:00,65.2,28.1,27.61,ESE,113,1.8,5.6,25,0.00,,,0.00,WUHU216HW,2013-03-02 17:01:00,
2013-03-02 10:06:00,65.0,27.9,27.61,East,90,0.0,5.6,25,0.00,,,0.00,WUHU216HW,2013-03-02 17:06:00,
2013-03-02 10:11:00,65.2,28.1,27.62,SE,135,3.1,3.1,25,0.00,,,0.00,WUHU216HW,2013-03-02 17:11:00,
2013-03-02 10:16:00,65.7,27.6,27.61,ESE,113,2.0,5.4,24,0.00,,,0.00,WUHU216HW,2013-03-02 17:16:00,
2013-03-02 10:21:00,66.4,28.2,27.61,ESE,113,1.1,5.4,24,0.00,,,0.00,WUHU216HW,2013-03-02 17:21:00,
2013-03-02 10:26:00,66.6,28.3,27.61,SE,135,1.3,4.5,24,0.00,,,0.00,WUHU216HW,2013-03-02 17:26:00,
2013-03-02 10:31:00,67.0,27.6,27.61,SE,135,2.5,4.0,23,0.00,,,0.00,WUHU216HW,2013-03-02 17:31:00,
2013-03-02 10:36:00,67.7,28.3,27.60,East,90,1.1,4.0,23,0.00,,,0.00,WUHU216HW,2013-03-02 17:36:00,
2013-03-02 10:41:00,68.8,28.2,27.60,ESE,113,3.4,6.0,22,0.00,,,0.00,WUHU216HW,2013-03-02 17:41:00,
2013-03-02 10:46:00,70.2,28.3,27.60,ESE,113,2.5,6.5,21,0.00,,,0.00,WUHU216HW,2013-03-02 17:46:00,
2013-03-02 10:51:00,71.3,26.6,27.59,ENE,68,4.9,6.7,19,0.00,,,0.00,WUHU216HW,2013-03-02 17:51:00,
2013-03-02 10:56:00,73.1,28.1,27.59,ESE,113,3.4,6.7,19,0.00,,,0.00,WUHU216HW,2013-03-02 17:56:00,
2013-03-02 11:01:00,76.0,28.8,27.59,NE,45,4.7,6.3,18,0.00,,,0.00,WUHU216HW,2013-03-02 18:01:00,
2013-03-02 11:06:00,79.0,27.8,27.59,NE,45,4.5,6.3,16,0.00,,,0.00,WUHU216HW,2013-03-02 18:06:00,
2013-03-02 11:10:00,81.7,28.5,27.59,ESE,113,4.3,6.7,15,0.00,,,0.00,WUHU216HW,2013-03-02 18:10:00,
2013-03-02 11:16:00,83.9,26.6,27.59,SE,135,3.8,7.6,13,0.00,,,0.00,WUHU216HW,2013-03-02 18:16:00,
2013-03-02 11:21:00,85.7,26.4,27.59,East,90,4.3,7.6,12,0.00,,,0.00,WUHU216HW,2013-03-02 18:21:00,
2013-03-02 11:26:00,87.1,29.3,27.59,ESE,113,4.3,6.0,13,0.00,,,0.00,WUHU216HW,2013-03-02 18:26:00,
2013-03-02 11:31:00,87.1,25.8,27.59,NNE,23,2.0,6.0,11,0.00,,,0.00,WUHU216HW,2013-03-02 18:31:00,
2013-03-02 11:36:00,86.6,27.1,27.59,East,90,2.9,5.8,12,0.00,,,0.00,WUHU216HW,2013-03-02 18:36:00,
2013-03-02 11:41:00,86.2,26.8,27.58,ESE,113,2.2,5.8,12,0.00,,,0.00,WUHU216HW,2013-03-02 18:41:00,
2013-03-02 11:46:00,86.6,27.1,27.58,ESE,113,1.3,3.4,12,0.00,,,0.00,WUHU216HW,2013-03-02 18:46:00,
2013-03-02 11:51:00,86.0,26.6,27.58,East,90,1.8,3.6,12,0.00,,,0.00,WUHU216HW,2013-03-02 18:51:00,
2013-03-02 11:56:00,85.7,28.1,27.58,South,180,0.0,5.1,13,0.00,,,0.00,WUHU216HW,2013-03-02 18:56:00,
2013-03-02 12:01:00,86.6,27.1,27.58,ESE,113,0.4,5.1,12,0.00,,,0.00,WUHU216HW,2013-03-02 19:01:00,
2013-03-02 12:06:00,86.9,27.4,27.58,SE,135,0.9,3.1,12,0.00,,,0.00,WUHU216HW,2013-03-02 19:06:00,
2013-03-02 12:11:00,86.0,24.9,27.57,SE,135,1.6,3.6,11,0.00,,,0.00,WUHU216HW,2013-03-02 19:11:00,
2013-03-02 12:16:00,84.6,25.5,27.57,SE,135,1.3,3.6,12,0.00,,,0.00,WUHU216HW,2013-03-02 19:16:00,
2013-03-02 12:21:00,83.5,24.7,27.57,East,90,2.5,3.4,12,0.00,,,0.00,WUHU216HW,2013-03-02 19:21:00,
2013-03-02 12:26:00,83.0,24.3,27.56,WSW,248,1.8,3.4,12,0.00,,,0.00,WUHU216HW,2013-03-02 19:26:00,
2013-03-02 12:31:00,82.4,24.0,27.56,South,180,0.9,3.8,12,0.00,,,0.00,WUHU216HW,2013-03-02 19:31:00,
2013-03-02 12:36:00,82.4,24.0,27.56,ESE,113,1.1,3.8,12,0.00,,,0.00,WUHU216HW,2013-03-02 19:36:00,
2013-03-02 12:41:00,82.4,24.0,27.56,ESE,113,2.0,2.5,12,0.00,,,0.00,WUHU216HW,2013-03-02 19:41:00,
2013-03-02 12:46:00,83.0,24.3,27.55,NE,45,1.1,2.5,12,0.00,,,0.00,WUHU216HW,2013-03-02 19:46:00,
2013-03-02 12:51:00,83.3,26.3,27.55,SSE,158,1.8,2.5,13,0.00,,,0.00,WUHU216HW,2013-03-02 19:51:00,
2013-03-02 12:56:00,83.9,24.9,27.55,SE,135,2.0,2.5,12,0.00,,,0.00,WUHU216HW,2013-03-02 19:56:00,
2013-03-02 13:01:00,84.1,25.1,27.54,SE,135,1.1,2.2,12,0.00,,,0.00,WUHU216HW,2013-03-02 20:01:00,
2013-03-02 13:06:00,83.5,24.7,27.54,WSW,248,0.9,2.7,12,0.00,,,0.00,WUHU216HW,2013-03-02 20:06:00,
2013-03-02 13:11:00,83.0,24.3,27.53,SSE,158,0.4,2.7,12,0.00,,,0.00,WUHU216HW,2013-03-02 20:11:00,
2013-03-02 13:16:00,83.0,24.3,27.53,SW,225,1.6,1.8,12,0.00,,,0.00,WUHU216HW,2013-03-02 20:16:00,
2013-03-02 13:21:00,82.8,24.1,27.53,NNE,23,1.1,2.9,12,0.00,,,0.00,WUHU216HW,2013-03-02 20:21:00,
2013-03-02 13:26:00,82.8,24.1,27.53,WSW,248,1.6,3.1,12,0.00,,,0.00,WUHU216HW,2013-03-02 20:26:00,
2013-03-02 13:31:00,82.6,24.0,27.53,West,270,1.8,3.1,12,0.00,,,0.00,WUHU216HW,2013-03-02 20:31:00,
2013-03-02 13:36:00,82.3,23.8,27.52,West,270,2.0,2.9,12,0.00,,,0.00,WUHU216HW,2013-03-02 20:36:00,
2013-03-02 13:41:00,82.3,23.8,27.52,NW,315,2.0,4.7,12,0.00,,,0.00,WUHU216HW,2013-03-02 20:41:00,
2013-03-02 13:46:00,82.1,23.6,27.52,West,270,2.7,4.7,12,0.00,,,0.00,WUHU216HW,2013-03-02 20:46:00,
2013-03-02 13:51:00,82.1,22.0,27.52,West,270,1.3,4.5,11,0.00,,,0.00,WUHU216HW,2013-03-02 20:51:00,
2013-03-02 13:56:00,82.1,22.0,27.51,NNW,338,1.8,4.5,11,0.00,,,0.00,WUHU216HW,2013-03-02 20:56:00,
2013-03-02 14:01:00,82.1,23.6,27.51,NW,315,0.9,3.8,12,0.00,,,0.00,WUHU216HW,2013-03-02 21:01:00,
2013-03-02 14:06:00,83.0,24.3,27.51,WSW,248,0.9,3.8,12,0.00,,,0.00,WUHU216HW,2013-03-02 21:06:00,
2013-03-02 14:11:00,83.7,23.1,27.51,NNW,338,2.0,3.6,11,0.00,,,0.00,WUHU216HW,2013-03-02 21:11:00,
2013-03-02 14:16:00,83.5,23.0,27.51,NW,315,0.9,4.7,11,0.00,,,0.00,WUHU216HW,2013-03-02 21:16:00,
2013-03-02 14:21:00,83.2,22.7,27.51,NW,315,1.1,4.7,11,0.00,,,0.00,WUHU216HW,2013-03-02 21:21:00,
2013-03-02 14:26:00,83.2,22.7,27.51,West,270,1.6,3.6,11,0.00,,,0.00,WUHU216HW,2013-03-02 21:26:00,
2013-03-02 14:31:00,83.0,22.6,27.51,West,270,2.7,5.8,11,0.00,,,0.00,WUHU216HW,2013-03-02 21:31:00,
2013-03-02 14:36:00,82.8,22.5,27.51,WSW,248,1.8,5.8,11,0.00,,,0.00,WUHU216HW,2013-03-02 21:36:00,
2013-03-02 14:41:00,82.6,22.3,27.51,NNW,338,1.3,4.0,11,0.00,,,0.00,WUHU216HW,2013-03-02 21:41:00,
2013-03-02 14:46:00,82.6,22.3,27.50,West,270,2.9,4.0,11,0.00,,,0.00,WUHU216HW,2013-03-02 21:46:00,
2013-03-02 14:51:00,82.8,22.5,27.50,West,270,2.5,3.6,11,0.00,,,0.00,WUHU216HW,2013-03-02 21:51:00,
2013-03-02 14:56:00,83.5,23.0,27.50,WNW,293,2.9,4.9,11,0.00,,,0.00,WUHU216HW,2013-03-02 21:56:00,
2013-03-02 15:01:00,83.9,23.2,27.50,WSW,248,1.8,4.9,11,0.00,,,0.00,WUHU216HW,2013-03-02 22:01:00,
2013-03-02 15:06:00,83.7,23.1,27.49,SSW,203,3.4,4.3,11,0.00,,,0.00,WUHU216HW,2013-03-02 22:06:00,
2013-03-02 15:11:00,83.3,22.9,27.50,WNW,293,1.6,4.3,11,0.00,,,0.00,WUHU216HW,2013-03-02 22:11:00,
2013-03-02 15:16:00,83.3,22.9,27.49,West,270,1.1,4.0,11,0.00,,,0.00,WUHU216HW,2013-03-02 22:16:00,
2013-03-02 15:21:00,83.5,23.0,27.49,WSW,248,1.1,2.5,11,0.00,,,0.00,WUHU216HW,2013-03-02 22:21:00,
2013-03-02 15:26:00,83.3,22.9,27.50,SW,225,0.9,2.9,11,0.00,,,0.00,WUHU216HW,2013-03-02 22:26:00,
2013-03-02 15:31:00,83.5,23.0,27.49,West,270,1.6,2.9,11,0.00,,,0.00,WUHU216HW,2013-03-02 22:31:00,
2013-03-02 15:36:00,83.5,23.0,27.49,WNW,293,1.8,4.0,11,0.00,,,0.00,WUHU216HW,2013-03-02 22:36:00,
2013-03-02 15:41:00,83.9,23.2,27.49,SSE,158,2.7,4.0,11,0.00,,,0.00,WUHU216HW,2013-03-02 22:41:00,
2013-03-02 15:46:00,84.4,22.0,27.49,West,270,1.1,3.4,10,0.00,,,0.00,WUHU216HW,2013-03-02 22:46:00,
2013-03-02 15:51:00,84.6,23.8,27.49,West,270,1.1,3.4,11,0.00,,,0.00,WUHU216HW,2013-03-02 22:51:00,
2013-03-02 15:56:00,85.0,22.3,27.49,WNW,293,1.6,3.4,10,0.00,,,0.00,WUHU216HW,2013-03-02 22:56:00,
2013-03-02 16:01:00,85.0,22.3,27.49,South,180,2.2,4.0,10,0.00,,,0.00,WUHU216HW,2013-03-02 23:01:00,
2013-03-02 16:06:00,84.8,22.2,27.48,West,270,0.9,4.0,10,0.00,,,0.00,WUHU216HW,2013-03-02 23:06:00,
2013-03-02 16:11:00,84.6,22.1,27.48,WNW,293,0.4,2.7,10,0.00,,,0.00,WUHU216HW,2013-03-02 23:11:00,
2013-03-02 16:16:00,84.4,22.0,27.48,West,270,1.1,2.7,10,0.00,,,0.00,WUHU216HW,2013-03-02 23:16:00,
2013-03-02 16:21:00,84.4,22.0,27.48,SSW,203,2.5,2.7,10,0.00,,,0.00,WUHU216HW,2013-03-02 23:21:00,
2013-03-02 16:26:00,84.4,22.0,27.48,SW,225,1.8,2.9,10,0.00,,,0.00,WUHU216HW,2013-03-02 23:26:00,
2013-03-02 16:31:00,85.0,22.3,27.48,West,270,3.1,3.1,10,0.00,,,0.00,WUHU216HW,2013-03-02 23:31:00,
2013-03-02 16:36:00,85.0,22.3,27.48,WNW,293,1.3,3.4,10,0.00,,,0.00,WUHU216HW,2013-03-02 23:36:00,
2013-03-02 16:41:00,85.7,23.0,27.47,West,270,0.4,3.4,10,0.00,,,0.00,WUHU216HW,2013-03-02 23:41:00,
2013-03-02 16:46:00,85.9,23.0,27.48,WSW,248,0.4,3.4,9,0.00,,,0.00,WUHU216HW,2013-03-02 23:46:00,
2013-03-02 16:51:00,85.5,22.8,27.47,NW,315,3.4,3.4,10,0.00,,,0.00,WUHU216HW,2013-03-02 23:51:00,
2013-03-02 16:56:00,85.3,22.7,27.47,NW,315,2.5,3.4,8,0.00,,,0.00,WUHU216HW,2013-03-02 23:56:00,
2013-03-02 17:01:00,85.0,22.3,27.47,NW,315,1.1,3.4,10,0.00,,,0.00,WUHU216HW,2013-03-03 00:01:00,
2013-03-02 17:06:00,84.6,22.1,27.47,WSW,248,1.1,3.1,10,0.00,,,0.00,WUHU216HW,2013-03-03 00:06:00,
2013-03-02 17:11:00,84.6,22.1,27.47,WSW,248,2.2,3.4,10,0.00,,,0.00,WUHU216HW,2013-03-03 00:11:00,
2013-03-02 17:16:00,84.6,22.1,27.47,WSW,248,1.8,3.4,9,0.00,,,0.00,WUHU216HW,2013-03-03 00:16:00,
2013-03-02 17:21:00,84.6,22.1,27.47,WSW,248,1.1,2.9,9,0.00,,,0.00,WUHU216HW,2013-03-03 00:21:00,
2013-03-02 17:26:00,83.9,21.5,27.47,WNW,293,0.9,2.5,8,0.00,,,0.00,WUHU216HW,2013-03-03 00:26:00,
2013-03-02 17:31:00,83.3,21.2,27.47,West,270,0.9,2.2,10,0.00,,,0.00,WUHU216HW,2013-03-03 00:31:00,
2013-03-02 17:36:00,83.2,21.1,27.46,West,270,0.4,1.8,10,0.00,,,0.00,WUHU216HW,2013-03-03 00:36:00,
2013-03-02 17:41:00,82.8,20.8,27.46,West,270,0.9,2.0,10,0.00,,,0.00,WUHU216HW,2013-03-03 00:41:00,
2013-03-02 17:46:00,82.4,20.5,27.47,NW,315,0.9,2.0,10,0.00,,,0.00,WUHU216HW,2013-03-03 00:46:00,
2013-03-02 17:51:00,82.1,20.3,27.47,West,270,1.1,2.2,10,0.00,,,0.00,WUHU216HW,2013-03-03 00:51:00,
2013-03-02 17:56:00,81.5,19.8,27.47,NW,315,0.0,2.2,10,0.00,,,0.00,WUHU216HW,2013-03-03 00:56:00,
2013-03-02 18:01:00,80.8,20.9,27.47,West,270,0.9,1.8,11,0.00,,,0.00,WUHU216HW,2013-03-03 01:01:00,
2013-03-02 18:06:00,80.3,20.5,27.47,NW,315,1.6,2.5,11,0.00,,,0.00,WUHU216HW,2013-03-03 01:06:00,
2013-03-02 18:11:00,79.6,19.9,27.47,NW,315,0.2,2.5,11,0.00,,,0.00,WUHU216HW,2013-03-03 01:11:00,
2013-03-02 18:16:00,78.8,19.4,27.47,NW,315,0.4,2.2,11,0.00,,,0.00,WUHU216HW,2013-03-03 01:16:00,
2013-03-02 18:21:00,78.1,20.4,27.47,West,270,0.7,1.3,12,0.00,,,0.00,WUHU216HW,2013-03-03 01:21:00,
2013-03-02 18:26:00,77.4,21.6,27.47,WNW,293,1.1,1.3,13,0.00,,,0.00,WUHU216HW,2013-03-03 01:26:00,
2013-03-02 18:31:00,76.7,21.1,27.47,NW,315,0.4,1.3,13,0.00,,,0.00,WUHU216HW,2013-03-03 01:31:00,
2013-03-02 18:36:00,76.1,23.9,27.47,West,270,0.7,1.8,15,0.00,,,0.00,WUHU216HW,2013-03-03 01:36:00,
2013-03-02 18:41:00,75.6,23.5,27.47,NW,315,0.2,1.8,15,0.00,,,0.00,WUHU216HW,2013-03-03 01:41:00,
2013-03-02 18:46:00,74.9,24.6,27.47,WNW,293,0.4,1.1,16,0.00,,,0.00,WUHU216HW,2013-03-03 01:46:00,
2013-03-02 18:51:00,74.5,24.3,27.47,NW,315,0.4,1.1,16,0.00,,,0.00,WUHU216HW,2013-03-03 01:51:00,
2013-03-02 18:56:00,74.0,25.6,27.47,NW,315,0.2,1.1,17,0.00,,,0.00,WUHU216HW,2013-03-03 01:56:00,
2013-03-02 19:01:00,73.4,25.1,27.47,West,270,0.0,0.9,17,0.00,,,0.00,WUHU216HW,2013-03-03 02:01:00,
2013-03-02 19:06:00,73.1,24.9,27.47,NW,315,1.1,1.1,17,0.00,,,0.00,WUHU216HW,2013-03-03 02:06:00,
2013-03-02 19:11:00,72.7,24.5,27.47,NNW,338,0.4,1.1,17,0.00,,,0.00,WUHU216HW,2013-03-03 02:11:00,
2013-03-02 19:16:00,72.4,25.8,27.48,NW,315,0.7,1.1,18,0.00,,,0.00,WUHU216HW,2013-03-03 02:16:00,
2013-03-02 19:21:00,71.8,25.4,27.48,NW,315,0.4,0.9,18,0.00,,,0.00,WUHU216HW,2013-03-03 02:21:00,
2013-03-02 19:26:00,71.5,26.6,27.48,NW,315,0.2,0.9,19,0.00,,,0.00,WUHU216HW,2013-03-03 02:26:00,
2013-03-02 19:31:00,71.1,26.4,27.48,WNW,293,0.0,0.9,19,0.00,,,0.00,WUHU216HW,2013-03-03 02:31:00,
2013-03-02 19:36:00,70.9,26.3,27.48,WNW,293,0.0,1.1,19,0.00,,,0.00,WUHU216HW,2013-03-03 02:36:00,
2013-03-02 19:41:00,70.6,25.9,27.48,WNW,293,0.4,1.1,19,0.00,,,0.00,WUHU216HW,2013-03-03 02:41:00,
2013-03-02 19:46:00,70.2,25.7,27.48,NW,315,0.4,1.1,19,0.00,,,0.00,WUHU216HW,2013-03-03 02:46:00,
2013-03-02 19:51:00,69.8,25.4,27.48,NW,315,0.2,0.9,19,0.00,,,0.00,WUHU216HW,2013-03-03 02:51:00,
2013-03-02 19:56:00,69.7,26.8,27.48,NW,315,0.0,0.7,20,0.00,,,0.00,WUHU216HW,2013-03-03 02:56:00,
2013-03-02 20:01:00,69.5,25.1,27.48,NW,315,0.0,0.4,19,0.00,,,0.00,WUHU216HW,2013-03-03 03:01:00,
2013-03-02 20:06:00,69.3,24.9,27.48,NW,315,0.0,0.0,19,0.00,,,0.00,WUHU216HW,2013-03-03 03:06:00,
2013-03-02 20:11:00,68.8,24.6,27.48,NW,315,0.0,0.0,19,0.00,,,0.00,WUHU216HW,2013-03-03 03:11:00,
2013-03-02 20:16:00,68.2,26.7,27.48,NW,315,0.0,0.0,21,0.00,,,0.00,WUHU216HW,2013-03-03 03:16:00,
2013-03-02 20:21:00,68.0,26.6,27.48,NW,315,0.0,0.0,21,0.00,,,0.00,WUHU216HW,2013-03-03 03:21:00,
2013-03-02 20:26:00,67.7,26.2,27.48,NW,315,0.0,0.0,21,0.00,,,0.00,WUHU216HW,2013-03-03 03:26:00,
2013-03-02 20:31:00,67.0,25.6,27.48,NW,315,0.0,0.0,21,0.00,,,0.00,WUHU216HW,2013-03-03 03:31:00,
2013-03-02 20:36:00,66.4,25.1,27.48,NW,315,0.0,0.0,21,0.00,,,0.00,WUHU216HW,2013-03-03 03:36:00,
2013-03-02 20:41:00,66.1,25.8,27.49,NW,315,0.0,0.0,22,0.00,,,0.00,WUHU216HW,2013-03-03 03:41:00,
2013-03-02 20:46:00,66.2,25.9,27.49,NW,315,0.0,0.0,22,0.00,,,0.00,WUHU216HW,2013-03-03 03:46:00,
2013-03-02 20:51:00,65.9,25.7,27.49,West,270,0.0,0.2,22,0.00,,,0.00,WUHU216HW,2013-03-03 03:51:00,
2013-03-02 20:56:00,65.9,25.7,27.49,West,270,0.0,1.1,22,0.00,,,0.00,WUHU216HW,2013-03-03 03:56:00,
2013-03-02 21:01:00,65.9,26.6,27.49,West,270,0.2,1.1,23,0.00,,,0.00,WUHU216HW,2013-03-03 04:01:00,
2013-03-02 21:06:00,65.5,26.4,27.49,SW,225,0.0,1.1,23,0.00,,,0.00,WUHU216HW,2013-03-03 04:06:00,
2013-03-02 21:11:00,65.2,26.1,27.49,SSW,203,0.0,0.7,23,0.00,,,0.00,WUHU216HW,2013-03-03 04:11:00,
2013-03-02 21:16:00,64.8,25.7,27.49,SSE,158,0.4,0.7,23,0.00,,,0.00,WUHU216HW,2013-03-03 04:16:00,
2013-03-02 21:21:00,64.4,26.5,27.50,SSE,158,0.4,1.1,24,0.00,,,0.00,WUHU216HW,2013-03-03 04:21:00,
2013-03-02 21:26:00,64.3,26.3,27.50,SE,135,0.4,1.1,24,0.00,,,0.00,WUHU216HW,2013-03-03 04:26:00,
2013-03-02 21:31:00,63.9,27.0,27.50,SE,135,0.4,1.6,25,0.00,,,0.00,WUHU216HW,2013-03-03 04:31:00,
2013-03-02 21:36:00,63.2,26.4,27.50,SE,135,1.1,2.0,25,0.00,,,0.00,WUHU216HW,2013-03-03 04:36:00,
2013-03-02 21:41:00,62.6,25.9,27.50,ESE,113,1.1,2.0,25,0.00,,,0.00,WUHU216HW,2013-03-03 04:41:00,
2013-03-02 21:46:00,62.3,26.6,27.50,ESE,113,1.3,1.8,26,0.00,,,0.00,WUHU216HW,2013-03-03 04:46:00,
2013-03-02 21:51:00,62.1,25.5,27.50,ESE,113,0.0,1.8,25,0.00,,,0.00,WUHU216HW,2013-03-03 04:51:00,
2013-03-02 21:56:00,61.7,24.2,27.50,ESE,113,0.4,1.8,24,0.00,,,0.00,WUHU216HW,2013-03-03 04:56:00,
2013-03-02 22:00:00,61.6,24.0,27.50,ESE,113,0.0,0.4,24,0.00,,,0.00,WUHU216HW,2013-03-03 05:00:00,
2013-03-02 22:05:00,61.2,24.7,27.50,ESE,113,0.9,1.1,25,0.00,,,0.00,WUHU216HW,2013-03-03 05:05:00,
2013-03-02 22:10:00,61.2,24.7,27.50,ESE,113,0.4,1.1,25,0.00,,,0.00,WUHU216HW,2013-03-03 05:10:00,
2013-03-02 22:15:00,61.0,24.6,27.50,ESE,113,1.1,1.3,25,0.00,,,0.00,WUHU216HW,2013-03-03 05:15:00,
2013-03-02 22:20:00,60.7,25.2,27.50,East,90,0.4,1.8,26,0.00,,,0.00,WUHU216HW,2013-03-03 05:20:00,
2013-03-02 22:25:00,60.3,24.9,27.50,ESE,113,1.3,1.8,26,0.00,,,0.00,WUHU216HW,2013-03-03 05:25:00,
2013-03-02 22:30:00,59.9,25.6,27.50,East,90,0.4,1.6,27,0.00,,,0.00,WUHU216HW,2013-03-03 05:30:00,
2013-03-02 22:35:00,59.6,25.3,27.50,ESE,113,0.4,1.6,27,0.00,,,0.00,WUHU216HW,2013-03-03 05:35:00,
2013-03-02 22:40:00,59.4,25.1,27.49,ESE,113,0.7,1.6,27,0.00,,,0.00,WUHU216HW,2013-03-03 05:40:00,
2013-03-02 22:45:00,59.0,24.9,27.50,ESE,113,0.4,1.3,27,0.00,,,0.00,WUHU216HW,2013-03-03 05:45:00,
2013-03-02 22:50:00,58.9,25.7,27.49,ENE,68,1.3,1.8,28,0.00,,,0.00,WUHU216HW,2013-03-03 05:50:00,
2013-03-02 22:55:00,58.7,25.5,27.50,ESE,113,1.6,2.2,28,0.00,,,0.00,WUHU216HW,2013-03-03 05:55:00,
2013-03-02 23:00:00,58.7,25.5,27.49,SE,135,1.1,2.5,28,0.00,,,0.00,WUHU216HW,2013-03-03 06:00:00,
2013-03-02 23:05:00,58.5,26.3,27.49,East,90,1.1,2.5,29,0.00,,,0.00,WUHU216HW,2013-03-03 06:05:00,
2013-03-02 23:10:00,58.1,25.9,27.49,ESE,113,1.8,2.2,29,0.00,,,0.00,WUHU216HW,2013-03-03 06:10:00,
2013-03-02 23:15:00,57.8,26.6,27.49,East,90,1.1,2.2,30,0.00,,,0.00,WUHU216HW,2013-03-03 06:15:00,
2013-03-02 23:20:00,57.4,26.3,27.48,NE,45,1.1,1.8,30,0.00,,,0.00,WUHU216HW,2013-03-03 06:20:00,
2013-03-02 23:25:00,57.2,26.8,27.49,ENE,68,1.3,1.8,31,0.00,,,0.00,WUHU216HW,2013-03-03 06:25:00,
2013-03-02 23:30:00,57.1,26.6,27.48,ESE,113,0.9,1.8,31,0.00,,,0.00,WUHU216HW,2013-03-03 06:30:00,
2013-03-02 23:35:00,56.7,27.0,27.48,ESE,113,2.2,2.2,32,0.00,,,0.00,WUHU216HW,2013-03-03 06:35:00,
2013-03-02 23:40:00,56.5,26.8,27.48,ESE,113,1.8,2.7,32,0.00,,,0.00,WUHU216HW,2013-03-03 06:40:00,
2013-03-02 23:45:00,56.3,26.7,27.48,ENE,68,2.0,2.9,32,0.00,,,0.00,WUHU216HW,2013-03-03 06:45:00,
2013-03-02 23:50:00,56.0,27.1,27.48,ESE,113,1.3,2.9,33,0.00,,,0.00,WUHU216HW,2013-03-03 06:50:00,
2013-03-02 23:55:00,55.8,26.9,27.48,East,90,2.0,3.8,33,0.00,,,0.00,WUHU216HW,2013-03-03 06:55:00,